| time (UTC) | temp F | wind direction | speed MPH | gust MPH | rain 1hr in | rain 24hr in | rain mn in | humidity % | barometer mb |
| 20260504231138 | 62 | 153 | 4.0 | 6.0 | 0.92 | 0.15 | 0.15 | 84 | 1000.0 |
| 20260504230634 | 69 | 281 | 4.0 | 8.0 | 0.07 | 0.01 | 0.01 | 65 | 1000.2 |
| 20260504230133 | 72 | 308 | 4.0 | 9.0 | 0.00 | 0.00 | 0.00 | 55 | 999.6 |
| 20260504225631 | 73 | 349 | 4.0 | 7.0 | 0.00 | 0.00 | 0.00 | 51 | 999.0 |
| 20260504225127 | 73 | 155 | 1.0 | 2.0 | 0.00 | 0.00 | 0.00 | 51 | 998.8 |
| 20260504224624 | 73 | 179 | 3.0 | 6.0 | 0.00 | 0.00 | 0.00 | 50 | 999.0 |
| 20260504224120 | 73 | 196 | 4.0 | 9.0 | 0.00 | 0.00 | 0.00 | 49 | 999.0 |
| 20260504223618 | 74 | 166 | 6.0 | 14.0 | 0.00 | 0.00 | 0.00 | 48 | 998.6 |
| 20260504223113 | 75 | 168 | 6.0 | 13.0 | 0.00 | 0.00 | 0.00 | 48 | 999.0 |
| 20260504222610 | 76 | 194 | 9.0 | 14.0 | 0.00 | 0.00 | 0.00 | 46 | 999.0 |
| 20260504222108 | 76 | 203 | 11.0 | 16.0 | 0.00 | 0.00 | 0.00 | 44 | 998.7 |
| 20260504221605 | 77 | 213 | 6.0 | 11.0 | 0.00 | 0.00 | 0.00 | 42 | 999.0 |
| 20260504221102 | 77 | 215 | 9.0 | 15.0 | 0.00 | 0.00 | 0.00 | 41 | 998.8 |
| 20260504220558 | 77 | 178 | 8.0 | 14.0 | 0.00 | 0.00 | 0.00 | 41 | 998.9 |
| 20260504220055 | 79 | 210 | 9.0 | 11.0 | 0.00 | 0.00 | 0.00 | 40 | 999.1 |
| 20260504215552 | 79 | 194 | 11.0 | 15.0 | 0.00 | 0.00 | 0.00 | 38 | 999.0 |
| 20260504215049 | 79 | 230 | 4.0 | 8.0 | 0.00 | 0.00 | 0.00 | 38 | 998.9 |
| 20260504214545 | 79 | 177 | 9.0 | 15.0 | 0.00 | 0.00 | 0.00 | 38 | 999.0 |
| 20260504214042 | 80 | 181 | 10.0 | 14.0 | 0.00 | 0.00 | 0.00 | 36 | 999.1 |
| 20260504213538 | 80 | 263 | 12.0 | 21.0 | 0.00 | 0.00 | 0.00 | 36 | 999.0 |
| 20260504213035 | 79 | 174 | 8.0 | 18.0 | 0.00 | 0.00 | 0.00 | 36 | 999.1 |
| 20260504212531 | 78 | 224 | 9.0 | 15.0 | 0.00 | 0.00 | 0.00 | 37 | 999.2 |
| 20260504212028 | 80 | 196 | 12.0 | 21.0 | 0.00 | 0.00 | 0.00 | 37 | 999.1 |
| 20260504211525 | 80 | 179 | 8.0 | 13.0 | 0.00 | 0.00 | 0.00 | 38 | 999.5 |
| 20260504211022 | 79 | 230 | 11.0 | 22.0 | 0.00 | 0.00 | 0.00 | 37 | 999.5 |
| 20260504210519 | 79 | 142 | 6.0 | 10.0 | 0.00 | 0.00 | 0.00 | 39 | 999.5 |
| 20260504210016 | 79 | 211 | 9.0 | 14.0 | 0.00 | 0.00 | 0.00 | 37 | 999.5 |
| 20260504205514 | 78 | 176 | 7.0 | 22.0 | 0.00 | 0.00 | 0.00 | 39 | 999.5 |
| 20260504205012 | 78 | 164 | 9.0 | 17.0 | 0.00 | 0.00 | 0.00 | 38 | 999.6 |
| 20260504204509 | 78 | 211 | 10.0 | 17.0 | 0.00 | 0.00 | 0.00 | 38 | 999.6 |
| 20260504204008 | 79 | 227 | 9.0 | 14.0 | 0.00 | 0.00 | 0.00 | 36 | 999.8 |
| 20260504203506 | 79 | 223 | 12.0 | 15.0 | 0.00 | 0.00 | 0.00 | 35 | 999.7 |
| 20260504203002 | 79 | 191 | 7.0 | 11.0 | 0.00 | 0.00 | 0.00 | 35 | 999.6 |
| 20260504202458 | 81 | 222 | 11.0 | 13.0 | 0.00 | 0.00 | 0.00 | 33 | 999.7 |
| 20260504201955 | 80 | 261 | 10.0 | 13.0 | 0.00 | 0.00 | 0.00 | 34 | 999.7 |
| 20260504201453 | 79 | 182 | 7.0 | 10.0 | 0.00 | 0.00 | 0.00 | 38 | 999.7 |
| 20260504200950 | 79 | 164 | 6.0 | 11.0 | 0.00 | 0.00 | 0.00 | 38 | 999.6 |
| 20260504200447 | 79 | 213 | 4.0 | 10.0 | 0.00 | 0.00 | 0.00 | 38 | 999.9 |
| 20260504195943 | 79 | 210 | 9.0 | 13.0 | 0.00 | 0.00 | 0.00 | 37 | 1000.1 |
| 20260504195439 | 78 | 209 | 6.0 | 16.0 | 0.00 | 0.00 | 0.00 | 39 | 1000.1 |
| 20260504194936 | 80 | 188 | 4.0 | 11.0 | 0.00 | 0.00 | 0.00 | 38 | 1000.2 |
| 20260504194432 | 78 | 180 | 6.0 | 10.0 | 0.00 | 0.00 | 0.00 | 38 | 1000.4 |
| 20260504193928 | 79 | 205 | 6.0 | 11.0 | 0.00 | 0.00 | 0.00 | 37 | 1000.4 |
| 20260504193425 | 78 | 230 | 5.0 | 8.0 | 0.00 | 0.00 | 0.00 | 34 | 1000.5 |
| 20260504192924 | 78 | 250 | 5.0 | 11.0 | 0.00 | 0.00 | 0.00 | 37 | 1000.5 |
| 20260504192421 | 78 | 218 | 8.0 | 18.0 | 0.00 | 0.00 | 0.00 | 36 | 1000.5 |
| 20260504191920 | 79 | 222 | 8.0 | 10.0 | 0.00 | 0.00 | 0.00 | 38 | 1000.5 |
| 20260504191418 | 79 | 230 | 8.0 | 11.0 | 0.00 | 0.00 | 0.00 | 37 | 1000.5 |
| 20260504190912 | 79 | 186 | 8.0 | 11.0 | 0.00 | 0.00 | 0.00 | 37 | 1000.6 |
| 20260504190408 | 79 | 129 | 7.0 | 13.0 | 0.00 | 0.00 | 0.00 | 36 | 1000.6 |
| 20260504185905 | 79 | 168 | 4.0 | 13.0 | 0.00 | 0.00 | 0.00 | 37 | 1000.7 |
| 20260504185403 | 78 | 237 | 9.0 | 14.0 | 0.00 | 0.00 | 0.00 | 36 | 1000.8 |
| 20260504184858 | 77 | 235 | 7.0 | 11.0 | 0.00 | 0.00 | 0.00 | 35 | 1001.0 |
| 20260504184354 | 79 | 252 | 11.0 | 19.0 | 0.00 | 0.00 | 0.00 | 34 | 1001.1 |
| 20260504183850 | 78 | 158 | 10.0 | 13.0 | 0.00 | 0.00 | 0.00 | 33 | 1000.7 |
| 20260504183348 | 78 | 199 | 12.0 | 16.0 | 0.00 | 0.00 | 0.00 | 33 | 1000.7 |
| 20260504182845 | 78 | 175 | 5.0 | 11.0 | 0.00 | 0.00 | 0.00 | 33 | 1000.9 |
| 20260504182343 | 77 | 268 | 9.0 | 10.0 | 0.00 | 0.00 | 0.00 | 32 | 1001.0 |
| 20260504181839 | 77 | 217 | 11.0 | 16.0 | 0.00 | 0.00 | 0.00 | 36 | 1001.0 |
| 20260504181337 | 77 | 183 | 11.0 | 19.0 | 0.00 | 0.00 | 0.00 | 36 | 1001.2 |
| 20260504180836 | 77 | 182 | 6.0 | 18.0 | 0.00 | 0.00 | 0.00 | 34 | 1001.1 |
| 20260504180334 | 77 | 228 | 7.0 | 10.0 | 0.00 | 0.00 | 0.00 | 34 | 1001.4 |
| 20260504175832 | 75 | 217 | 2.0 | 13.0 | 0.00 | 0.00 | 0.00 | 37 | 1001.3 |
| 20260504175328 | 76 | 232 | 10.0 | 15.0 | 0.00 | 0.00 | 0.00 | 36 | 1001.4 |
| 20260504174826 | 76 | 127 | 6.0 | 13.0 | 0.00 | 0.00 | 0.00 | 38 | 1001.4 |
| 20260504174323 | 76 | 237 | 6.0 | 16.0 | 0.00 | 0.00 | 0.00 | 37 | 1001.4 |
| 20260504173820 | 75 | 189 | 10.0 | 13.0 | 0.00 | 0.00 | 0.00 | 35 | 1001.5 |
| 20260504173317 | 75 | 164 | 4.0 | 11.0 | 0.00 | 0.00 | 0.00 | 40 | 1001.6 |
| 20260504172814 | 75 | 170 | 14.0 | 25.0 | 0.00 | 0.00 | 0.00 | 38 | 1001.5 |
| 20260504172310 | 74 | 169 | 5.0 | 11.0 | 0.00 | 0.00 | 0.00 | 40 | 1001.8 |
| 20260504171806 | 75 | 230 | 10.0 | 13.0 | 0.00 | 0.00 | 0.00 | 38 | 1001.7 |
| 20260504171304 | 75 | 172 | 8.0 | 10.0 | 0.00 | 0.00 | 0.00 | 41 | 1001.7 |
| 20260504170801 | 74 | 172 | 5.0 | 11.0 | 0.00 | 0.00 | 0.00 | 40 | 1001.9 |
| 20260504170258 | 74 | 222 | 9.0 | 14.0 | 0.00 | 0.00 | 0.00 | 40 | 1002.3 |
| 20260504160216 | 72 | 194 | 7.0 | 15.0 | 0.00 | 0.00 | 0.00 | 42 | 1003.0 |
| 20260504151144 | 70 | 168 | 3.0 | 8.0 | 0.00 | 0.00 | 0.00 | 48 | 1003.5 |
| 20260504150641 | 69 | 146 | 5.0 | 11.0 | 0.00 | 0.00 | 0.00 | 48 | 1003.7 |
| 20260504150138 | 69 | 225 | 6.0 | 10.0 | 0.00 | 0.00 | 0.00 | 49 | 1003.7 |
| 20260504141107 | 64 | 139 | 7.0 | 10.0 | 0.00 | 0.00 | 0.00 | 55 | 1004.3 |
| 20260504140603 | 64 | 186 | 6.0 | 8.0 | 0.00 | 0.00 | 0.00 | 56 | 1004.3 |
| 20260504130528 | 57 | 166 | 3.0 | 6.0 | 0.00 | 0.00 | 0.00 | 71 | 1004.9 |
| 20260504110415 | 47 | 135 | 1.0 | 6.0 | 0.00 | 0.00 | 0.00 | 85 | 1005.2 |
| 20260504100332 | 48 | 168 | 1.0 | 2.0 | 0.00 | 0.00 | 0.00 | 84 | 1005.3 |
| 20260504081725 | 49 | 138 | 1.0 | 2.0 | 0.00 | 0.00 | 0.00 | 85 | 1005.1 |
| 20260504081222 | 49 | 153 | 2.0 | 2.0 | 0.00 | 0.00 | 0.00 | 83 | 1005.1 |
| 20260504080718 | 49 | 166 | 4.0 | 4.0 | 0.00 | 0.00 | 0.00 | 83 | 1005.1 |
| 20260504080215 | 49 | 153 | 0.0 | 1.0 | 0.00 | 0.00 | 0.00 | 83 | 1005.0 |
| 20260504070142 | 53 | 187 | 2.0 | 4.0 | 0.00 | 0.00 | 0.00 | 74 | 1005.8 |
| 20260504050531 | 56 | 165 | 2.0 | 4.0 | 0.00 | 0.00 | 0.00 | 71 | 1006.7 |
| 20260504045525 | 56 | 153 | 4.0 | 6.0 | 0.00 | 0.00 | 0.00 | 71 | 1006.6 |
| 20260504045020 | 56 | 180 | 1.0 | 3.0 | 0.00 | 0.00 | 0.00 | 71 | 1006.9 |
| 20260504044518 | 56 | 183 | 4.0 | 6.0 | 0.00 | 0.00 | 0.00 | 70 | 1006.8 |
| 20260504044015 | 57 | 168 | 5.0 | 6.0 | 0.00 | 0.00 | 0.00 | 70 | 1006.9 |
| 20260504043512 | 57 | 169 | 2.0 | 4.0 | 0.00 | 0.00 | 0.00 | 69 | 1007.1 |
| 20260504043009 | 57 | 192 | 4.0 | 4.0 | 0.00 | 0.00 | 0.00 | 69 | 1006.8 |
| 20260504042506 | 57 | 151 | 2.0 | 6.0 | 0.00 | 0.00 | 0.00 | 68 | 1006.7 |
| 20260504042003 | 57 | 191 | 2.0 | 6.0 | 0.00 | 0.00 | 0.00 | 67 | 1006.9 |
| 20260504041459 | 58 | 147 | 5.0 | 7.0 | 0.00 | 0.00 | 0.00 | 66 | 1006.7 |
| 20260504040954 | 58 | 175 | 2.0 | 7.0 | 0.00 | 0.00 | 0.00 | 66 | 1006.6 |
| 20260504040453 | 58 | 124 | 2.0 | 8.0 | 0.00 | 0.00 | 0.00 | 66 | 1006.7 |
| 20260504035948 | 58 | 152 | 3.0 | 6.0 | 0.00 | 0.00 | 0.00 | 65 | 1006.7 |
| 20260504035446 | 58 | 166 | 5.0 | 8.0 | 0.00 | 0.00 | 0.00 | 65 | 1006.6 |
| 20260504034942 | 59 | 167 | 3.0 | 4.0 | 0.00 | 0.00 | 0.00 | 65 | 1006.7 |
| 20260504034440 | 59 | 167 | 4.0 | 7.0 | 0.00 | 0.00 | 0.00 | 64 | 1006.6 |
| 20260504033937 | 59 | 149 | 4.0 | 7.0 | 0.00 | 0.00 | 0.00 | 64 | 1006.7 |
| 20260504033435 | 59 | 142 | 5.0 | 6.0 | 0.00 | 0.00 | 0.00 | 63 | 1006.9 |
| 20260504032932 | 59 | 158 | 4.0 | 6.0 | 0.00 | 0.00 | 0.00 | 63 | 1007.1 |
| 20260504032428 | 59 | 152 | 4.0 | 6.0 | 0.00 | 0.00 | 0.00 | 63 | 1007.1 |
| 20260504031925 | 59 | 193 | 4.0 | 6.0 | 0.00 | 0.00 | 0.00 | 63 | 1007.2 |
| 20260504031422 | 59 | 177 | 2.0 | 3.0 | 0.00 | 0.00 | 0.00 | 64 | 1007.2 |
| 20260504030919 | 59 | 158 | 3.0 | 4.0 | 0.00 | 0.00 | 0.00 | 63 | 1007.2 |
| 20260504030416 | 59 | 149 | 2.0 | 3.0 | 0.00 | 0.00 | 0.00 | 63 | 1007.3 |
| 20260504025912 | 60 | 174 | 4.0 | 6.0 | 0.00 | 0.00 | 0.00 | 62 | 1007.2 |
| 20260504025409 | 60 | 164 | 2.0 | 4.0 | 0.00 | 0.00 | 0.00 | 62 | 1007.2 |
| 20260504024906 | 60 | 172 | 1.0 | 4.0 | 0.00 | 0.00 | 0.00 | 62 | 1007.5 |
| 20260504024403 | 60 | 145 | 2.0 | 3.0 | 0.00 | 0.00 | 0.00 | 62 | 1007.3 |
| 20260504023900 | 60 | 157 | 4.0 | 7.0 | 0.00 | 0.00 | 0.00 | 61 | 1007.4 |
| 20260504023356 | 60 | 155 | 2.0 | 3.0 | 0.00 | 0.00 | 0.00 | 61 | 1007.2 |
| 20260504022851 | 60 | 138 | 1.0 | 4.0 | 0.00 | 0.00 | 0.00 | 61 | 1007.2 |
| 20260504022349 | 61 | 150 | 2.0 | 3.0 | 0.00 | 0.00 | 0.00 | 61 | 1007.3 |
| 20260504021845 | 61 | 134 | 2.0 | 8.0 | 0.00 | 0.00 | 0.00 | 60 | 1007.2 |
| 20260504021342 | 61 | 182 | 3.0 | 6.0 | 0.00 | 0.00 | 0.00 | 59 | 1007.2 |
| 20260504020839 | 62 | 185 | 3.0 | 3.0 | 0.00 | 0.00 | 0.00 | 59 | 1007.2 |
| 20260504020336 | 62 | 142 | 1.0 | 3.0 | 0.00 | 0.00 | 0.00 | 59 | 1006.9 |
| 20260504015832 | 62 | 176 | 4.0 | 6.0 | 0.00 | 0.00 | 0.00 | 58 | 1006.8 |
| 20260504015328 | 62 | 156 | 2.0 | 4.0 | 0.00 | 0.00 | 0.00 | 57 | 1006.8 |
| 20260504014825 | 62 | 169 | 2.0 | 6.0 | 0.00 | 0.00 | 0.00 | 57 | 1006.8 |
| 20260504014320 | 62 | 184 | 3.0 | 6.0 | 0.00 | 0.00 | 0.00 | 57 | 1006.7 |
| 20260504013819 | 63 | 155 | 2.0 | 6.0 | 0.00 | 0.00 | 0.00 | 57 | 1006.5 |
| 20260504013316 | 63 | 171 | 4.0 | 7.0 | 0.00 | 0.00 | 0.00 | 56 | 1006.7 |
| 20260504012813 | 63 | 176 | 4.0 | 4.0 | 0.00 | 0.00 | 0.00 | 56 | 1006.7 |
| 20260504012311 | 63 | 182 | 4.0 | 8.0 | 0.00 | 0.00 | 0.00 | 55 | 1006.6 |
| 20260504011808 | 64 | 146 | 6.0 | 8.0 | 0.00 | 0.00 | 0.00 | 55 | 1006.5 |
| 20260504011304 | 64 | 191 | 5.0 | 9.0 | 0.00 | 0.00 | 0.00 | 54 | 1006.4 |
| 20260504010800 | 64 | 201 | 5.0 | 8.0 | 0.00 | 0.00 | 0.00 | 53 | 1006.4 |
| 20260504010255 | 64 | 178 | 4.0 | 6.0 | 0.00 | 0.00 | 0.00 | 53 | 1006.4 |
| 20260504005753 | 64 | 183 | 4.0 | 4.0 | 0.00 | 0.00 | 0.00 | 53 | 1006.4 |
| 20260504005249 | 65 | 146 | 4.0 | 7.0 | 0.00 | 0.00 | 0.00 | 51 | 1006.5 |
| 20260504004747 | 65 | 184 | 3.0 | 6.0 | 0.00 | 0.00 | 0.00 | 51 | 1006.4 |
| 20260504004244 | 66 | 156 | 5.0 | 8.0 | 0.00 | 0.00 | 0.00 | 50 | 1006.4 |
| 20260504003741 | 66 | 136 | 3.0 | 6.0 | 0.00 | 0.00 | 0.00 | 50 | 1006.5 |
| 20260504003238 | 66 | 225 | 3.0 | 6.0 | 0.00 | 0.00 | 0.00 | 50 | 1006.4 |
| 20260504002734 | 67 | 179 | 5.0 | 8.0 | 0.00 | 0.00 | 0.00 | 49 | 1006.5 |
| 20260504002231 | 67 | 168 | 4.0 | 13.0 | 0.00 | 0.00 | 0.00 | 48 | 1006.5 |
| 20260504001729 | 67 | 212 | 4.0 | 8.0 | 0.00 | 0.00 | 0.00 | 48 | 1006.3 |
| 20260504001226 | 67 | 170 | 4.0 | 7.0 | 0.00 | 0.00 | 0.00 | 48 | 1006.5 |
| 20260504000722 | 68 | 168 | 4.0 | 7.0 | 0.00 | 0.00 | 0.00 | 47 | 1006.6 |
| 20260504000219 | 68 | 196 | 4.0 | 6.0 | 0.00 | 0.00 | 0.00 | 46 | 1006.5 |
| 20260503235718 | 68 | 184 | 3.0 | 8.0 | 0.00 | 0.00 | 0.00 | 46 | 1006.3 |
| 20260503235214 | 68 | 192 | 6.0 | 11.0 | 0.00 | 0.00 | 0.00 | 46 | 1006.5 |
| 20260503234712 | 68 | 233 | 7.0 | 11.0 | 0.00 | 0.00 | 0.00 | 45 | 1006.4 |
| 20260503234210 | 68 | 218 | 9.0 | 15.0 | 0.00 | 0.00 | 0.00 | 45 | 1006.4 |
| 20260503233707 | 68 | 244 | 12.0 | 15.0 | 0.00 | 0.00 | 0.00 | 44 | 1006.7 |
| 20260503233203 | 68 | 168 | 5.0 | 8.0 | 0.00 | 0.00 | 0.00 | 44 | 1006.6 |
| 20260503232700 | 68 | 210 | 11.0 | 16.0 | 0.00 | 0.00 | 0.00 | 44 | 1006.6 |
| 20260503232157 | 68 | 180 | 4.0 | 11.0 | 0.00 | 0.00 | 0.00 | 44 | 1006.5 |
| 20260503231655 | 69 | 200 | 8.0 | 14.0 | 0.00 | 0.00 | 0.00 | 44 | 1006.6 |